Weather History for KBDR - July, 2013

Change the Weather History Date:

Tuesday, July 2, 2013

  Actual Average Record
Temperature  
Mean Temperature 78 °F 73 °F  
Max Temperature 82 °F 81 °F 100 °F (1966)
Min Temperature 73 °F 65 °F 51 °F (1982)
Degree Days  
Heating Degree Days 0 0  
Month to date heating degree days 0 0  
Since 1 June heating degree days 18 32  
Since 1 July heating degree days 0 0  
Cooling Degree Days 13 8  
Month to date cooling degree days 25 16  
Year to date cooling degree days 238 183  
Since 1 June cooling degree days 200 159  
Growing Degree Days 26 (Base 50)    
Moisture  
Dew Point 72 °F    
Average Humidity 84    
Maximum Humidity 93    
Minimum Humidity 74    
Precipitation  
Precipitation 0.08 in 0.09 in 1.42 in (1986)
Month to date precipitation 0.24 0.18  
Year to date precipitation 23.32 21.66  
Snow  
Snow 0.00 in 0.00 in 0.00 in (2002)
Month to date snowfall 0.0 0.0  
Since 1 July snowfall 0.0 0.0  
Snow Depth -    
Sea Level Pressure  
Sea Level Pressure 30.13 in    
Wind  
Wind Speed 9 mph (SSW)    
Max Wind Speed 14 mph    
Max Gust Speed 18 mph    
Visibility 9 miles    
Events Rain    
T = Trace of Precipitation, MM = Missing Value Source: NWS Daily Summary

Daily Weather History Graph

Daily Weather History Graph

Search for Another Location

Airport or City:

Trip Planner

Search our weather history database for the weather conditions in past years. The results will help you decide how hot, cold, wet, or windy it might be!

Date:

Astronomy

Jul. 02, 2013 Rise Set
Actual Time 5:24 AM EDT 8:28 PM EDT
Civil Twilight 4:50 AM EDT 9:02 PM EDT
Nautical Twilight 4:07 AM EDT 9:45 PM EDT
Astronomical Twilight 3:17 AM EDT 10:35 PM EDT
Moon 1:26 AM EDT (7/2) 3:38 PM EDT (7/2)
Length of Visible Light 16h 11m
Length of Day
15h 04m
Waning Crescent, 26% of the Moon is Illuminated
Jul 2
Waning Crescent
Jul 8
New
Jul 15
First Quarter
Jul 22
Full
Jul 29
Last Quarter

Hourly Weather History & Observations

Time (EDT) Temp. Heat Index Dew Point Humidity Pressure Visibility Wind Dir Wind Speed Gust Speed Precip Events Conditions
12:52 AM 73.9 °F - 71.1 °F 91% 30.08 in 10.0 mi SSW 8.1 mph - N/A   Overcast
1:52 AM 73.9 °F - 71.1 °F 91% 30.08 in 9.0 mi SW 6.9 mph - N/A   Overcast
2:04 AM 73.4 °F - 71.6 °F 94% 30.08 in 9.0 mi SW 5.8 mph - N/A   Overcast
2:52 AM 73.9 °F - 71.1 °F 91% 30.08 in 7.0 mi SSW 5.8 mph - N/A   Overcast
3:44 AM 73.4 °F - 71.6 °F 94% 30.08 in 7.0 mi South 4.6 mph - N/A   Overcast
3:52 AM 73.0 °F - 72.0 °F 96% 30.08 in 8.0 mi SSW 5.8 mph - N/A   Overcast
4:42 AM 73.4 °F - 71.6 °F 94% 30.08 in 10.0 mi South 8.1 mph - N/A   Overcast
4:52 AM 73.9 °F - 71.1 °F 91% 30.09 in 10.0 mi South 10.4 mph - N/A   Overcast
5:52 AM 73.0 °F - 71.1 °F 93% 30.10 in 9.0 mi SSW 6.9 mph - 0.01 in   Overcast
6:52 AM 73.0 °F - 71.1 °F 93% 30.11 in 8.0 mi South 6.9 mph - N/A   Overcast
7:35 AM 73.4 °F - 71.6 °F 94% 30.12 in 7.0 mi South 9.2 mph - N/A   Mostly Cloudy
7:52 AM 73.9 °F - 72.0 °F 93% 30.12 in 7.0 mi South 9.2 mph - N/A   Mostly Cloudy
8:00 AM 73.4 °F - 71.6 °F 94% 30.12 in 7.0 mi South 10.4 mph - N/A   Mostly Cloudy
8:52 AM 75.0 °F - 72.0 °F 90% 30.14 in 9.0 mi SSW 11.5 mph - N/A   Overcast
9:10 AM 75.2 °F - 71.6 °F 89% 30.14 in 9.0 mi SSW 10.4 mph - N/A   Overcast
9:19 AM 75.2 °F - 71.6 °F 89% 30.14 in 10.0 mi SSW 9.2 mph - N/A   Overcast
10:52 AM 75.9 °F - 72.0 °F 87% 30.15 in 10.0 mi South 10.4 mph - N/A   Overcast
11:16 AM 75.2 °F - 71.6 °F 89% 30.15 in 10.0 mi South 9.2 mph - N/A   Scattered Clouds
11:52 AM 77.0 °F - 72.0 °F 84% 30.15 in 10.0 mi South 9.2 mph - N/A   Mostly Cloudy
12:52 PM 79.0 °F - 73.0 °F 82% 30.16 in 10.0 mi South 10.4 mph - N/A   Partly Cloudy
1:49 PM 78.8 °F - 73.4 °F 83% 30.15 in 10.0 mi South 9.2 mph - 0.00 in   Mostly Cloudy
1:52 PM 78.1 °F - 72.0 °F 81% 30.15 in 10.0 mi South 10.4 mph - 0.00 in   Mostly Cloudy
2:36 PM 78.8 °F - 71.6 °F 78% 30.14 in 10.0 mi SSW 11.5 mph - 0.00 in   Scattered Clouds
2:52 PM 80.1 °F 84.2 °F 73.0 °F 79% 30.14 in 10.0 mi South 11.5 mph - 0.00 in   Clear
3:52 PM 80.1 °F 84.2 °F 73.0 °F 79% 30.13 in 10.0 mi South 10.4 mph - N/A   Clear
4:52 PM 80.1 °F 83.8 °F 72.0 °F 76% 30.12 in 10.0 mi South 10.4 mph - N/A   Clear
5:52 PM 80.1 °F 83.8 °F 72.0 °F 76% 30.12 in 10.0 mi South 12.7 mph - N/A   Clear
6:52 PM 77.0 °F - 71.1 °F 82% 30.14 in 10.0 mi South 8.1 mph - N/A   Clear
7:52 PM 75.9 °F - 71.1 °F 85% 30.15 in 10.0 mi SSW 6.9 mph - N/A   Clear
8:52 PM 75.0 °F - 71.1 °F 87% 30.17 in 10.0 mi WSW 4.6 mph - 0.00 in Rain Light Rain
9:52 PM 75.0 °F - 72.0 °F 90% 30.19 in 4.0 mi SW 10.4 mph - 0.02 in Rain Rain
10:52 PM 73.9 °F - 71.1 °F 91% 30.18 in 10.0 mi SW 9.2 mph - 0.05 in   Clear
11:52 PM 73.9 °F - 71.1 °F 91% 30.19 in 10.0 mi SW 8.1 mph - N/A   Partly Cloudy